Wahoo, NE

9:15 AM CDT on October 18, 2017 (GMT -0500)
Wahoo Municipal

Weather History for KAHQ - November, 2013

Change the Weather History Date:

Thursday, November 21, 2013

  Actual Average Record
Temperature  
Mean Temperature 28 °F -  
Max Temperature 36 °F 46 °F 72 °F (2012)
Min Temperature 21 °F 23 °F 0 °F (1985)
Degree Days  
Heating Degree Days 36    
Moisture  
Dew Point 21 °F    
Average Humidity 76    
Maximum Humidity 94    
Minimum Humidity 62    
Precipitation  
Precipitation 0.00 in - - ()
Sea Level Pressure  
Sea Level Pressure 30.28 in    
Wind  
Wind Speed 20 mph (NNW)    
Max Wind Speed 29 mph    
Max Gust Speed 36 mph    
Visibility 9 miles    
Events Snow    
Averages and records for this station are not official NWS values.
T = Trace of Precipitation, MM = Missing Value Source: NWS Daily Summary

Daily Weather History Graph

Daily Weather History Graph

Search for Another Location

Airport or City:

Trip Planner

Search our weather history database for the weather conditions in past years. The results will help you decide how hot, cold, wet, or windy it might be!

Date:

Astronomy

Nov. 21, 2013 Rise Set
Actual Time 7:21 AM CST 5:02 PM CST
Civil Twilight 6:51 AM CST 5:32 PM CST
Nautical Twilight 6:17 AM CST 6:06 PM CST
Astronomical Twilight 5:45 AM CST 6:39 PM CST
Moon 8:40 PM CST (11/21) 10:28 AM CST (11/21)
Length of Visible Light 10h 40m
Length of Day
9h 40m
Waning Gibbous, 85% of the Moon is Illuminated
Nov 21
Waning Gibbous
Nov 25
Last Quarter
Dec 2
New
Dec 9
First Quarter
Dec 17
Full

Hourly Weather History & Observations

Time (CST) Temp. Windchill Dew Point Humidity Pressure Visibility Wind Dir Wind Speed Gust Speed Precip Events Conditions
12:15 AM 33.4 °F 26.6 °F 32.0 °F 94% 29.95 in 10.0 mi NNW 8.1 mph - N/A   Clear
12:35 AM 34.9 °F 27.1 °F 32.5 °F 91% 29.96 in 10.0 mi NW 10.4 mph - N/A   Clear
12:55 AM 35.1 °F 27.4 °F 32.7 °F 91% 29.98 in 10.0 mi NNW 10.4 mph - N/A   Clear
1:15 AM 36.1 °F 26.2 °F 33.3 °F 89% 29.99 in 10.0 mi NNW 17.3 mph - N/A   Clear
1:35 AM 36.1 °F 25.5 °F 32.2 °F 86% 30.01 in 10.0 mi NNW 19.6 mph 23.0 mph N/A   Scattered Clouds
1:55 AM 35.6 °F 24.8 °F 31.1 °F 84% 30.02 in 10.0 mi NNW 19.6 mph 24.2 mph N/A   Overcast
2:15 AM 34.2 °F 22.1 °F 30.0 °F 85% 30.02 in 10.0 mi NNW 23.0 mph 31.1 mph N/A   Scattered Clouds
2:35 AM 33.8 °F 21.3 °F 29.8 °F 85% 30.03 in 10.0 mi NNW 24.2 mph 31.1 mph N/A   Mostly Cloudy
2:55 AM 33.8 °F 21.6 °F 30.2 °F 87% 30.04 in 10.0 mi North 23.0 mph 31.1 mph N/A   Overcast
3:15 AM 33.4 °F 19.8 °F 29.3 °F 85% 30.04 in 10.0 mi North 28.8 mph 35.7 mph N/A   Overcast
3:35 AM 33.4 °F 22.3 °F 29.3 °F 85% 30.07 in 10.0 mi North 18.4 mph 33.4 mph N/A   Overcast
3:55 AM 33.3 °F 20.1 °F 29.3 °F 85% 30.07 in 7.0 mi North 26.5 mph 33.4 mph N/A   Overcast
4:15 AM 33.3 °F 21.5 °F 29.3 °F 85% 30.09 in 10.0 mi North 20.7 mph 27.6 mph N/A   Overcast
4:35 AM 32.9 °F 20.7 °F 28.8 °F 85% 30.11 in 10.0 mi North 21.9 mph 32.2 mph N/A   Overcast
4:55 AM 32.7 °F 19.9 °F 28.4 °F 84% 30.12 in 10.0 mi North 24.2 mph 31.1 mph N/A   Overcast
5:15 AM 32.2 °F 18.6 °F 27.5 °F 83% 30.12 in 10.0 mi NNW 26.5 mph 33.4 mph N/A   Overcast
5:35 AM 31.8 °F 18.7 °F 25.9 °F 79% 30.14 in 10.0 mi NNW 24.2 mph 33.4 mph N/A   Overcast
5:55 AM 31.5 °F 17.9 °F 24.8 °F 76% 30.15 in 10.0 mi NNW 25.3 mph 35.7 mph N/A   Overcast
6:15 AM 31.1 °F 17.7 °F 24.1 °F 75% 30.17 in 10.0 mi North 24.2 mph - N/A   Overcast
6:35 AM 30.7 °F 17.5 °F 23.4 °F 74% 30.18 in 10.0 mi North 23.0 mph 27.6 mph N/A   Overcast
6:55 AM 30.2 °F 16.8 °F 22.8 °F 74% 30.20 in 10.0 mi North 23.0 mph 29.9 mph N/A   Overcast
7:15 AM 29.7 °F 15.8 °F 22.1 °F 73% 30.21 in 10.0 mi NNW 24.2 mph 32.2 mph N/A   Overcast
7:35 AM 29.3 °F 15.3 °F 21.9 °F 74% 30.22 in 10.0 mi NNW 24.2 mph 29.9 mph N/A   Overcast
7:55 AM 29.3 °F 17.0 °F 22.1 °F 75% 30.24 in 10.0 mi North 18.4 mph 31.1 mph N/A   Overcast
8:15 AM 29.1 °F 15.1 °F 21.6 °F 73% 30.25 in 10.0 mi North 24.2 mph 32.2 mph N/A   Overcast
8:35 AM 28.9 °F 13.7 °F 21.0 °F 72% 30.24 in 10.0 mi North 28.8 mph 35.7 mph N/A   Overcast
8:55 AM 28.8 °F 14.3 °F 20.5 °F 71% 30.25 in 10.0 mi North 25.3 mph 34.5 mph N/A   Overcast
9:15 AM 28.4 °F 14.7 °F 20.1 °F 71% 30.25 in 10.0 mi North 21.9 mph 31.1 mph N/A   Overcast
9:35 AM 28.4 °F 13.8 °F 19.8 °F 70% 30.26 in 10.0 mi North 25.3 mph 34.5 mph N/A   Overcast
9:55 AM 28.4 °F 14.7 °F 19.2 °F 69% 30.27 in 10.0 mi North 21.9 mph 28.8 mph N/A   Overcast
10:15 AM 28.4 °F 13.8 °F 18.9 °F 67% 30.27 in 10.0 mi North 25.3 mph 33.4 mph N/A   Overcast
10:35 AM 27.9 °F 12.5 °F 18.3 °F 67% 30.29 in 10.0 mi North 27.6 mph 33.4 mph N/A   Overcast
10:55 AM 28.0 °F 13.6 °F 18.1 °F 66% 30.29 in 10.0 mi North 24.2 mph 31.1 mph N/A   Overcast
11:15 AM 28.2 °F 14.5 °F 18.3 °F 66% 30.30 in 10.0 mi North 21.9 mph 33.4 mph N/A   Overcast
11:35 AM 27.5 °F 12.0 °F 17.6 °F 66% 30.31 in 10.0 mi North 27.6 mph - N/A   Overcast
11:55 AM 27.5 °F 12.9 °F 17.1 °F 65% 30.31 in 10.0 mi North 24.2 mph 31.1 mph N/A   Overcast
12:15 PM 27.3 °F 12.4 °F 16.7 °F 64% 30.30 in 10.0 mi NNW 25.3 mph 31.1 mph N/A   Overcast
12:35 PM 27.5 °F 14.2 °F 17.2 °F 65% 30.31 in 10.0 mi North 19.6 mph 27.6 mph N/A   Overcast
12:55 PM 27.3 °F 12.7 °F 16.9 °F 65% 30.31 in 10.0 mi North 24.2 mph 28.8 mph N/A   Overcast
1:15 PM 27.5 °F 13.9 °F 16.9 °F 64% 30.31 in 10.0 mi North 20.7 mph 27.6 mph N/A   Overcast
1:35 PM 27.7 °F 13.8 °F 16.9 °F 64% 30.31 in 10.0 mi NNW 21.9 mph 28.8 mph N/A   Overcast
1:55 PM 27.9 °F 14.7 °F 17.1 °F 64% 30.31 in 10.0 mi North 19.6 mph 27.6 mph N/A   Overcast
2:15 PM 27.7 °F 12.6 °F 16.7 °F 63% 30.32 in 10.0 mi North 26.5 mph 32.2 mph N/A   Overcast
2:35 PM 27.9 °F 13.4 °F 16.7 °F 63% 30.32 in 10.0 mi North 24.2 mph 31.1 mph N/A   Overcast
2:55 PM 27.5 °F 12.6 °F 16.5 °F 63% 30.32 in 10.0 mi North 25.3 mph 32.2 mph N/A   Overcast
3:15 PM 27.3 °F 14.0 °F 16.3 °F 63% 30.33 in 10.0 mi North 19.6 mph 34.5 mph N/A   Overcast
3:35 PM 27.7 °F 13.5 °F 16.9 °F 64% 30.33 in 10.0 mi North 23.0 mph 28.8 mph N/A   Overcast
3:55 PM 28.0 °F 13.3 °F 16.7 °F 62% 30.35 in 10.0 mi North 25.3 mph 32.2 mph N/A   Overcast
4:15 PM 27.5 °F 13.2 °F 16.7 °F 64% 30.36 in 10.0 mi North 23.0 mph 31.1 mph N/A   Overcast
4:35 PM 27.5 °F 13.5 °F 17.4 °F 66% 30.37 in 10.0 mi North 21.9 mph 33.4 mph N/A   Overcast
4:55 PM 27.5 °F 12.3 °F 17.4 °F 66% 30.37 in 10.0 mi North 26.5 mph 33.4 mph N/A   Overcast
5:15 PM 26.6 °F 11.4 °F 16.0 °F 64% 30.39 in 10.0 mi NNW 25.3 mph 32.2 mph N/A   Overcast
5:35 PM 25.7 °F 11.2 °F 16.5 °F 68% 30.40 in 10.0 mi NNW 21.9 mph 26.5 mph N/A   Overcast
5:55 PM 25.3 °F 9.7 °F 16.9 °F 70% 30.41 in 10.0 mi NNW 25.3 mph 33.4 mph N/A   Overcast
6:15 PM 24.6 °F 9.7 °F 18.0 °F 76% 30.41 in 4.0 mi NNW 21.9 mph 31.1 mph N/A Snow Light Snow
6:35 PM 24.3 °F 8.6 °F 18.0 °F 77% 30.43 in 7.0 mi NNW 24.2 mph 32.2 mph N/A Snow Light Snow
6:55 PM 23.9 °F 9.1 °F 18.5 °F 80% 30.44 in 3.0 mi NNW 20.7 mph 33.4 mph N/A Snow Light Snow
7:15 PM 23.2 °F 9.0 °F 18.5 °F 82% 30.44 in 2.0 mi NNW 18.4 mph 33.4 mph N/A Snow Light Snow
7:35 PM 23.0 °F 7.6 °F 18.3 °F 82% 30.45 in 4.0 mi NNW 21.9 mph 31.1 mph N/A Snow Light Snow
7:55 PM 23.0 °F 8.3 °F 18.5 °F 83% 30.46 in 7.0 mi NNW 19.6 mph 29.9 mph N/A Snow Light Snow
8:15 PM 22.8 °F 6.7 °F 18.5 °F 83% 30.47 in 7.0 mi NNW 24.2 mph 29.9 mph N/A Snow Light Snow
8:35 PM 22.5 °F 6.2 °F 18.1 °F 83% 30.48 in 3.0 mi NNW 24.2 mph 32.2 mph N/A Snow Light Snow
8:55 PM 21.9 °F 4.8 °F 18.0 °F 85% 30.50 in 2.0 mi NNW 26.5 mph 31.1 mph N/A Snow Light Snow
9:15 PM 21.6 °F 6.1 °F 17.8 °F 85% 30.51 in 1.5 mi NNW 20.7 mph 29.9 mph N/A Snow Light Snow
9:35 PM 21.2 °F 5.6 °F 17.6 °F 86% 30.52 in 2.5 mi NNW 20.7 mph 24.2 mph N/A Snow Light Snow
9:55 PM 21.2 °F 6.0 °F 18.0 °F 87% 30.53 in 2.5 mi NNW 19.6 mph 24.2 mph N/A Snow Light Snow
10:15 PM 21.2 °F 4.9 °F 17.6 °F 86% 30.53 in 3.0 mi NNW 23.0 mph 28.8 mph N/A Snow Light Snow
10:35 PM 21.0 °F 4.6 °F 17.2 °F 85% 30.54 in 2.5 mi NNW 23.0 mph 28.8 mph N/A Snow Light Snow
10:55 PM 21.2 °F 5.2 °F 17.1 °F 84% 30.55 in 10.0 mi NNW 21.9 mph - N/A Snow Light Snow
11:15 PM 21.2 °F 4.9 °F 16.7 °F 83% 30.55 in 10.0 mi NNW 23.0 mph 27.6 mph N/A   Overcast
11:35 PM 21.2 °F 6.0 °F 16.5 °F 82% 30.56 in 10.0 mi NNW 19.6 mph 24.2 mph N/A   Overcast
11:55 PM 21.0 °F 6.2 °F 16.0 °F 81% 30.57 in 10.0 mi NNW 18.4 mph 26.5 mph N/A   Overcast